Regional Weather Roundup
Issued by NWS Goodland, KS

Home | Current Version | Previous Version | Text Only | Print | Product List | Glossary On
Versions: 1 2 3 4 5 6 7 8 9 10 11 12 13 14 15 16 17 18 19 20 21 22 23 24 25 26 27 28 29 30 31 32 33 34 35 36 37 38 39 40 41 42 43 44 45 46 47 48 49 50
000
ASUS43 KGLD 211108
RWRGLD

GOODLAND FORECAST AREA HOURLY WEATHER ROUNDUP
NATIONAL WEATHER SERVICE GOODLAND KS
500 AM MDT SUN SEP 21 2014

...OFFICIAL OBSERVATIONS...

CITY           SKY/WX    TMP DP  RH WIND       PRES   REMARKS
GOODLAND KS    CLEAR     51  45  79 N3        30.30S
HILL CITY KS   PTCLDY    55  47  74 NW3       30.23R
IMPERIAL NEB   PTCLDY    52  44  74 NW3       30.30R
MCCOOK NEB     CLEAR     49  46  90 W3        30.27R
AKRON CO       CLOUDY    55  43  63 SE8       30.34R
BURLINGTON CO  CLOUDY    53  45  74 CALM      30.32R
LIMON CO       CLOUDY    56  44  64 SE8       30.38S
$$

...UNOFFICIAL OBSERVATIONS...

CITY           SKY/WX    TMP DP  RH WIND       PRES   REMARKS
COLBY KS       CLEAR     55  48  76 N8        30.29R
GOVE KS          N/A     56  32  40 MISG        N/A
NORTON KS      CLEAR     50  43  76 NW12      30.24R
SHARON SPRINGS   N/A     53  47  82 CALM        N/A
WAKEENEY KS      N/A     56  46  71 MISG        N/A
TRENTON NEB      N/A     52  32  46 N9          N/A
KIT CARSON CO    N/A     58  43  58 CALM        N/A
$$



USA.gov is the U.S. government's official web portal to all federal, state and local government web resources and services.